Regional Weather Roundup
Issued by NWS

Home | Current Version | Previous Version | Graphics & Text | Print | Product List | Glossary On
Versions: 1 2 3 4 5 6 7 8 9 10 11 12 13 14 15 16 17 18 19 20 21 22 23 24 25 26 27 28 29 30 31 32 33 34 35 36 37 38 39 40 41 42 43 44 45 46 47 48 49 50
000
ASUS43 KOAX 292302
RWRNE

WEATHER ROUNDUP FOR NEBRASKA
NATIONAL WEATHER SERVICE OMAHA NE
600 PM CDT SUN MAR 29 2015

NOTES: SATELLITE DATA IS BEING USED TO AUGMENT CLOUD COVER ABOVE
       12000 FEET.
       "FAIR" INDICATES FEW OR NO CLOUDS BELOW 12,000 FEET WITH NO
       SIGNIFICANT WEATHER AND/OR OBSTRUCTIONS TO VISIBILITY.

  * THESE STATIONS DO NOT REPORT WEATHER SUCH AS RAIN...SNOW OR FOG.

NEZ001>004-019>022-054>056-300000-
NEBRASKA PANHANDLE

CITY           SKY/WX    TMP DP  RH WIND       PRES   REMARKS
SCOTTSBLUFF    PTSUNNY   65  23  20 CALM      30.11F
ALLIANCE       SUNNY     62  25  24 W8        30.11F
CHADRON        MOSUNNY   64  27  24 NW13      30.09F
KIMBALL        SUNNY     61  21  22 CALM      30.13F
SIDNEY         SUNNY     61  22  22 CALM      30.15F
$$

NEZ057>060-069>072-079>082-300000-
SOUTHWEST NEBRASKA

CITY           SKY/WX    TMP DP  RH WIND       PRES   REMARKS
NORTH PLATTE   SUNNY     63  19  18 NW12      30.14S
IMPERIAL         N/A     64  18  17 NW8       30.15F
MCCOOK         SUNNY     66  16  14 N12       30.13F
$$

NEZ005>010-023>029-035>040-094-300000-
NORTH CENTRAL NEBRASKA

CITY           SKY/WX    TMP DP  RH WIND       PRES   REMARKS
VALENTINE      SUNNY     60  18  19 NW13G22   30.11S
AINSWORTH      SUNNY     60  17  18 NW10G16   30.11S
BROKEN BOW     SUNNY     62  17  17 N17G24    30.12F
O`NEILL        SUNNY     60  17  18 NW15      30.09F
ORD            SUNNY     62  10  13 NW17G26   30.10S
$$

NEZ041-046>049-061>064-073>077-083>087-300000-
SOUTH CENTRAL NEBRASKA

CITY           SKY/WX    TMP DP  RH WIND       PRES   REMARKS
GRAND ISLAND   SUNNY     62  15  16 N17       30.12S
AURORA         SUNNY     62  18  18 N15G25    30.10S
HASTINGS       SUNNY     63  15  15 N18G25    30.11S
HEBRON         SUNNY     63  17  17 N16G25    30.10S
HOLDREGE       SUNNY     63  10  13 N16       30.13S
KEARNEY *      SUNNY     63  12  14 N18       30.13R
YORK           SUNNY     61  23  23 N13G23    30.10S
$$

NEZ011>018-030>034-042>045-300000-
NORTHEAST NEBRASKA

CITY           SKY/WX    TMP DP  RH WIND       PRES   REMARKS
NORFOLK        SUNNY     61  20  20 NW21G28   30.06S
ALBION         SUNNY     61  15  16 N15       30.09S
BLAIR          SUNNY     62  23  22 N16G25    30.04R
COLUMBUS *     SUNNY     61  21  21 N22       30.10R
FREMONT        SUNNY     63  20  19 NW18G30   30.06R
WAYNE          SUNNY     61  18  19 N21G29    30.05S
$$

NEZ050>053-065>068-078-088>093-300000-
SOUTHEAST NEBRASKA

CITY           SKY/WX    TMP DP  RH WIND       PRES   REMARKS
LINCOLN        SUNNY     64  25  22 N21       30.08R
OMAHA EPPLEY   SUNNY     62  24  23 N21G29    30.03S
BEATRICE       SUNNY     62  30  29 N18G25    30.09R
FALLS CITY     SUNNY     62  31  31 NW18G28   30.05R
NEBRASKA CITY  SUNNY     61  24  24 N14G21    30.05S
PLATTSMOUTH    SUNNY     61  21  21 N17G23    30.05R
$$

NEZ044-045-051>053-067-300000-
OMAHA AREA

CITY           SKY/WX    TMP DP  RH WIND       PRES   REMARKS
OMAHA EPPLEY   SUNNY     62  24  23 N21G29    30.03S
BLAIR          SUNNY     62  23  22 N16G25    30.04R
FREMONT        SUNNY     63  20  19 NW18G30   30.06R
OFFUTT AFB     SUNNY     62  27  26 NW20      30.03S
PLATTSMOUTH    SUNNY     61  21  21 N17G23    30.05R
WAHOO          FAIR      62  15  15 N23       30.06R
$$


USA.gov is the U.S. government's official web portal to all federal, state and local government web resources and services.